Regional Weather Roundup
Issued by NWS

Home | Current Version | Previous Version | Graphics & Text | Print | Product List | Glossary On
Versions: 1 2 3 4 5 6 7 8 9 10 11 12 13 14 15 16 17 18 19 20 21 22 23 24 25 26 27
000
ASUS43 KDMX 151207
RWRIA

WEATHER ROUNDUP FOR IOWA
NATIONAL WEATHER SERVICE DES MOINES IA
700 AM CDT TUE APR 15 2014

NOTE: "FAIR" INDICATES FEW OR NO CLOUDS BELOW 12,000 FEET WITH NO
SIGNIFICANT WEATHER AND/OR OBSTRUCTIONS TO VISIBILITY.

* - THESE STATIONS ARE NOT NWS STATIONS...THUS NOT UNDER NWS
QUALITY CONTROL.  THEY ALSO DO NOT REPORT WEATHER SUCH
AS PRECIPITATION OR FOG.

IAZ001>003-012>014-020>022-031>034-043>046-151300-
   NORTHWEST IOWA

CITY           SKY/WX    TMP DP  RH WIND       PRES   REMARKS
CARROLL *      CLEAR     21  18  86 NW3       30.19S
CHEROKEE *     CLEAR     18  12  79 CALM      30.19S
DENISON *      CLEAR     21  18  86 CALM      30.18R
LE MARS *      CLEAR     16  16 100 CALM      30.19S
ORANGE CITY *  CLEAR     18  14  86 CALM      30.17R
SHELDON *      CLEAR     14  10  85 CALM      30.16S
SIOUX CITY     CLEAR     19  15  84 CALM      30.19S
6HR MIN TEMP:  16; 6HR MAX TEMP:  28;

SPENCER        CLEAR     16  12  84 N6        30.17F WCI   7
6HR MIN TEMP:  14; 6HR MAX TEMP:  23;

STORM LAKE *   CLEAR     18  14  86 N7        30.17S WCI   8
$$

IAZ055>058-069>071-079>083-090>094-151300-
   SOUTHWEST IOWA

CITY           SKY/WX    TMP DP  RH WIND       PRES   REMARKS
ATLANTIC *     CLEAR     23  18  80 N3        30.19R
AUDUBON *      CLEAR     19  12  73 CALM      30.18S
COUNCIL BLFS * CLEAR     25  19  80 N7        30.18R WCI  17
CRESTON *      CLEAR     25  19  80 N6        30.18S WCI  18
HARLAN  *      CLEAR     23  19  86 N3        30.22R
LAMONI         PTCLDY    25  20  81 W5        30.18R WCI  19
6HR MIN TEMP:  24; 6HR MAX TEMP:  29;

RED OAK *      CLEAR     25  23  93 CALM      30.19S
SHENANDOAH *   CLEAR     21  21 100 CALM      30.21S
$$

IAZ047>049-059>061-072>074-084-151300-
   CENTRAL IOWA

CITY           SKY/WX    TMP DP  RH WIND       PRES   REMARKS
AMES           CLEAR     24  18  77 NW8       30.19R WCI  15
6HR MIN TEMP:  24; 6HR MAX TEMP:  27;

ANKENY *       CLOUDY    27  19  74 N8        30.19R WCI  18
CHARITON *     CLEAR     25  19  80 NW7       30.19R WCI  17
DES MOINES     PTCLDY    27  19  72 N6        30.19R WCI  20
6HR MIN TEMP:  26; 6HR MAX TEMP:  30;

GRINNELL*      CLEAR     25  21  86 NW7       30.17R WCI  17
KNOXVILLE *    CLOUDY    27  19  74 NW8       30.18R WCI  18
MARSHALLTOWN   CLEAR     23  19  85 NW6       30.16R WCI  16
6HR MIN TEMP:  23; 6HR MAX TEMP:  27;

NEWTON *       PTCLDY    25  19  80 NW8       30.19R WCI  16
PELLA *        MOCLDY    27  21  80 NW8       30.19R WCI  18
PERRY *        MOCLDY    27  19  74 N8        30.19S WCI  18
$$

IAZ004>006-015-016-023>025-035-036-151300-
   NORTH CENTRAL IOWA

CITY           SKY/WX    TMP DP  RH WIND       PRES   REMARKS
ALGONA *       CLEAR     19  14  79 NW7       30.18R WCI  10
CLARION *      CLEAR     19  12  73 NW6       30.18R WCI  11
ESTHERVILLE    CLEAR     15  12  88 W7        30.16R WCI   5
6HR MIN TEMP:  13; 6HR MAX TEMP:  23;

FORT DODGE *   CLEAR     21  12  68 CALM      30.19R
MASON CITY     CLEAR     19  12  74 NW9       30.15R WCI   8
6HR MIN TEMP:  18; 6HR MAX TEMP:  24;

FOREST CITY *  CLEAR     21  12  68 NW7       30.15R WCI  13
IOWA FALLS *     N/A     23  14  68 NW12      30.17R WCI  12
$$

IAZ007>011-017>019-026>030-037>042-050>054-066-151300-
   NORTHEAST IOWA

CITY           SKY/WX    TMP DP  RH WIND       PRES   REMARKS
CEDAR RAPIDS   CLEAR     25  17  72 NW12      30.13R WCI  14
6HR MIN TEMP:  24; 6HR MAX TEMP:  27;

CHARLES CITY * CLEAR     23  14  68 NW10      30.13S WCI  12
CLINTON *      PTCLDY    21  18  86 NW5       30.14R WCI  15
DECORAH *      CLEAR     23  16  74 VRB3      30.09R
DUBUQUE        MOCLDY    24  17  74 NW9       30.09R WCI  14
6HR MIN TEMP:  21; 6HR MAX TEMP:  25;

MONTICELLO *   CLEAR     27  19  74 NW9       30.12R WCI  17
OELWEIN *      CLEAR    N/A N/A N/A NW10      30.13R
WATERLOO       CLEAR     23  13  65 NW6       30.14R WCI  16
6HR MIN TEMP:  22; 6HR MAX TEMP:  27;

$$

IAZ064-065-067-068-078-151300-
   EAST CENTRAL IOWA

CITY           SKY/WX    TMP DP  RH WIND       PRES   REMARKS
DAVENPORT      CLEAR     25  20  81 W9        30.12R WCI  15
6HR MIN TEMP:  25; 6HR MAX TEMP:  30;

IOWA CITY      CLEAR     26  18  71 W7        30.16R WCI  18
6HR MIN TEMP:  26; 6HR MAX TEMP:  30;

MT. PLEASANT * CLEAR     27  19  74 W6        30.17R WCI  20
MUSCATINE *    CLEAR     27  19  74 W8        30.16R WCI  18
QUAD CITIES    CLEAR     27  18  69 NW10      30.13R WCI  17
6HR MIN TEMP:  27; 6HR MAX TEMP:  31;

$$

IAZ062-063-075>077-085>089-095>099-151300-
   SOUTHEAST IOWA

CITY           SKY/WX    TMP DP  RH WIND       PRES   REMARKS
BURLINGTON     CLEAR     27  18  69 NW7       30.15R WCI  19
6HR MIN TEMP:  26; 6HR MAX TEMP:  31;

FAIRFIELD *    CLOUDY    27  19  74 W9        30.17R WCI  17
FORT MADISON * CLEAR     27  21  80 W6        30.17R WCI  20
KEOKUK *       CLEAR     27  19  74 W7        30.17R WCI  19
OSKALOOSA *    CLOUDY    28  23  82 NW7       30.18R WCI  20
CENTERVILLE *  CLEAR     25  21  86 W7        30.19R WCI  17
OTTUMWA        CLOUDY    26  19  74 W7        30.17R WCI  18
6HR MIN TEMP:  22; 6HR MAX TEMP:  28;

WASHINGTON *   CLEAR     25  19  80 NW10      30.16R WCI  15
$$

ABBREVIATIONS USED IN REMARKS
   TC - TEMPERATURES IN CELSIUS
  WCI - WIND CHILL INDEX
   HX - HEAT INDEX
  VSB - VISIBILITY
$$




USA.gov is the U.S. government's official web portal to all federal, state and local government web resources and services.